Other Public Products
Issued by NWS Grand Forks, ND

Home | Current Version | Previous Version | Graphics & Text | Print | Product List | Glossary On
Versions: 1 2 3 4 5 6 7 8 9 10 11 12 13 14 15 16 17 18 19 20 21 22 23 24 25 26 27 28 29 30 31 32 33 34 35 36 37 38 39 40 41 42 43 44 45 46 47 48 49 50
000
FPUS83 KFGF 241431
OPUFGF
PRAIRIE TO PINES WEATHER ROUNDUP
NATIONAL WEATHER SERVICE EASTERN NORTH DAKOTA/GRAND FORKS ND
900 AM CDT SUN JUL 24 2016

 **SATELLITE DATA USED TO AUGMENT SKY COVER AT AUTOMATED STATIONS**
 *****  WEATHER ACROSS EASTERN NORTH DAKOTA  *****

CITY           SKY/WX    TMP DP  RH WIND       PRES   REMARKS
GRAND FORKS    MOSUNNY   70  62  76 W12       29.84S
GRAND FORKS AF SUNNY     71  63  75 W12       29.85S
GRAND CITY NWS   N/A     70 N/A N/A NW9         N/A
BUXTON           N/A     71  68  89 W9          N/A
DEVILS LAKE    SUNNY     67  59  75 W16       29.90S
FARGO          MOSUNNY   70  62  76 W12       29.89R
WAHPETON ARPT  MOSUNNY   70  61  73 NW15      29.92R
$$

 *****  WEATHER ACROSS CENTRAL AND WESTERN NORTH DAKOTA  *****

CITY           SKY/WX    TMP DP  RH WIND       PRES   REMARKS
JAMESTOWN      SUNNY     69  60  73 NW13      29.94S
BISMARCK       MOSUNNY   68  57  68 W7        30.02R
MINOT          SUNNY     71  56  58 W14       29.97S
MINOT AFB      SUNNY     67  56  68 W17       29.96R
GARRISON         N/A     67  58  72 NW13      30.00S
WILLISTON      SUNNY     65  54  67 SW6       30.04R
DICKINSON      SUNNY     66  53  63 W9        30.06R
HETTINGER      MOSUNNY   66  53  63 W6        30.11R
$$

 *****  OTHER OBSERVATIONS NORTHEAST NORTH DAKOTA  *****

CITY           SKY/WX    TMP DP  RH WIND       PRES   REMARKS
WALHALLA       FAIR      70  66  88 W9G17     29.82S
LANGDON        FAIR      68  63  83 W15       29.87S
CAVALIER       FAIR      70  63  78 W13       29.82S
GRAFTON        FAIR      70  63  78 W17G24    29.85R
CANDO          FAIR      66  61  82 NW14      29.92S
FORT TOTTEN    NOT AVBL
ROLLA            N/A     66  57  72 NW12      29.91S
RUGBY          NOT AVBL
 ***** THE ABOVE OBSERVATIONS ARE NON NWS ARE NOT QUALITY
        CONTROLLED AND MAY MIS-REPORT RAIN FOR SNOW...
$$

 *****  OTHER OBSERVATIONS SOUTHEAST NORTH DAKOTA *****

CITY           SKY/WX    TMP DP  RH WIND       PRES   REMARKS
COOPERSTOWN    NOT AVBL
VALLEY CITY    FAIR      68  64  88 W14       29.95R
OAKES            N/A    N/A N/A N/A MISG        N/A
GWINNER        FAIR      72  63  73 W14G21    29.96R
BUFFALO          N/A     70  59  67 W9          N/A
WYNDMERE         N/A     72  63  73 NW12        N/A
 ***** THE ABOVE OBSERVATIONS ARE NON NWS ARE NOT QUALITY
       CONTROLLED AND MAY MIS-REPORT RAIN FOR SNOW...
$$

  *****  WEATHER ACROSS NORTHERN MINNESOTA  *****

CITY           SKY/WX    TMP DP  RH WIND       PRES   REMARKS
FLAG ISLAND    CLOUDY    64  61  88 W18       29.74R
WARROAD        MOSUNNY   66  63  88 W15G21    29.78S
ROSEAU         SUNNY     68  63  83 W10G17    29.79S
HALLOCK        SUNNY     68  63  83 W10G16    29.81R
THF RVR FALLS  SUNNY     66  60  81 W12       29.85R
HALSTAD        NOT AVBL
FOSSTON        MOSUNNY   64  57  77 W12       29.87S
BAUDETTE       PTSUNNY   68  61  78 W10G21    29.77R
WASKISH        PTSUNNY   68  61  77 W13       29.80S
CROOKSTON      SUNNY     70  63  78 NW13      29.86S
$$
  *****  WEATHER ACROSS CENTRAL AND WEST MINNESOTA  *****

CITY           SKY/WX    TMP DP  RH WIND       PRES   REMARKS
BEMIDJI        CLOUDY    64  61  88 NW15      29.83S
PARK RAPIDS    CLOUDY    66  60  81 NW15G24   29.86R
WADENA         MOSUNNY   66  63  88 W8        29.88R
DETROIT LAKES  MOSUNNY   68  61  77 W14       29.91R
MOORHEAD       MOSUNNY   70  61  73 W13       29.90R
FERGUS FALLS   CLOUDY    68  61  77 NW16G22   29.92S
ELBOW LAKE     FAIR      66  62  87 W14       29.92S
MORRIS MN      MOSUNNY   72  63  73 NW15G22   29.92R
STAPLES        MOSUNNY   68  61  77 NW12      29.87S
WHEATON        CLOUDY    73  64  73 W12       29.95R
$$
  *****  WEATHER ELSEWHERE ACROSS MINNESOTA  *****

CITY           SKY/WX    TMP DP  RH WIND       PRES   REMARKS
DULUTH         PTSUNNY   72  66  81 NW12      29.78R
INTRNTL FALLS  CLOUDY    66  60  81 W12G20    29.75R
ELY            MOSUNNY   72  66  83 W10G16    29.74F
CLOQUET        MOSUNNY   72  64  78 W9        29.79R
BRAINERD       MOSUNNY   69  62  78 W9        29.85R
HIBBING        MOSUNNY   71  64  78 NW9       29.78R
ALEXANDRIA     MOSUNNY   69  61  75 NW17      29.91R
SAINT CLOUD    SUNNY     74  65  73 NW8       29.85S
MINNEAPOLIS    MOSUNNY   78  69  73 W10       29.84R
$$

  *****  WEATHER ACROSS SOUTH DAKOTA  *****

CITY           SKY/WX    TMP DP  RH WIND       PRES   REMARKS
SIOUX FALLS    MOSUNNY   75  65  70 N7        29.99R
BROOKINGS      CLOUDY    68  63  84 NW7       30.00R
WATERTOWN      CLOUDY    69  61  75 NW10      29.99R
HURON          CLOUDY    66  60  81 N14       29.98F
SISSETON         N/A     71  61  70 NW12      29.94R
ABERDEEN       PTSUNNY   70  59  68 NW10      30.02R
MITCHELL       CLOUDY    68  62  81 N5        30.03R
PIERRE         CLOUDY    68  58  70 N6        30.02F
MOBRIDGE       PTSUNNY   68  56  65 W7        30.04R
RAPID CITY     CLOUDY    66  55  67 SW3       30.14R
$$

  *****  SOME WEATHER IN NEARBY STATES *****

CITY           SKY/WX    TMP DP  RH WIND       PRES   REMARKS
GLASGOW MT     SUNNY     64  56  75 SE6       30.05R
GREAT FALLS MT SUNNY     62  40  44 S6        30.12F
CHEYENNE WY    PTSUNNY   69  51  52 SE7       30.21R
SCOTTSBLUFF NE PTSUNNY   70  55  59 E10       30.09F
OMAHA NE       MOSUNNY   82  69  64 N10       29.92R
DES MOINES IA  CLOUDY    84  76  76 NW8       29.88R HX  93
DAVENPORT IA   CLOUDY    84  76  76 SW10      29.86S HX  93
CHICAGO IL     PTSUNNY   78  73  84 S12       29.91F
EAU CLAIRE WI  CLOUDY    75  72  90 NW7       29.80R
LA CROSSE WI   CLOUDY    80  75  84 SW7       29.79R
$$

  *****  SOME NATIONAL WEATHER *****

CITY           SKY/WX    TMP DP  RH WIND       PRES   REMARKS
LA GUARDIA NY  MOSUNNY   84  61  45 NW7       29.98S
RALEIGH NC     PTSUNNY   85  75  72 SW6       30.03S HX  93
ATLANTA GA     MOSUNNY   86  71  60 VRB7      30.08S HX  91
NEW ORLEANS LA PTSUNNY   86  77  74 W5        29.99R HX  97
OKLAHOMA CITY  MOSUNNY   83  70  64 SW10      29.98R
ALBUQUERQUE NM MOSUNNY   77  50  38 CALM      30.16R
SALT LAKE CITY MOSUNNY   70  41  34 S5        30.10R
LOS ANGELES CA MOSUNNY   70  65  84 SE6       29.86R
BOISE ID       SUNNY     62  41  46 S3        30.08R
SEATTLE WA     SUNNY     59  54  83 NE8       30.15S
$$

*** WEATHER ACROSS MANITOBA...SASKATCHEWAN AND ONTARIO ***
                ***ONTARIO***

CITY           SKY/WX    TMP DP  RH WIND       PRES   REMARKS
GERALDTON      LGT RAIN  66  64  94 SE3       29.77F
THUNDER BAY    CLOUDY    68  64  88 E6        29.69F
SIOUX LOOKOUT  PTSUNNY   70  66  88 SW8       29.64S
TORONTO        PTSUNNY   75  61  60 E8        30.02R
BIG TROUT LK   LGT RAIN  63  61  94 SE15G21   29.57
PICKLE LAKE    DRIZZLE   68  63  83 S13       29.61F
DRYDEN         PTSUNNY   70  64  83 W15G23    29.66S
KENORA         PTSUNNY   64  61  88 W9        29.72R
$$
                *** MANITOBA***

CITY           SKY/WX    TMP DP  RH WIND       PRES   REMARKS
BRANDON        MOSUNNY   66  59  77 W16G23    29.86R
DAUPHIN        SUNNY     66  61  82 W16       29.80R
ISLAND LAKE    LGT RAIN  61  61 100 N12       29.57
PILOT MOUND      N/A     64  57  77 W10         N/A
THE PAS        PTSUNNY   64  59  82 NW12      29.78R
THOMPSON       LGT RAIN  61  59  94 N3        29.73R
WINNIPEG       MOSUNNY   66  61  82 W17G23    29.76R
LYNN LAKE      SUNNY     63  57  82 MISG      29.80S
CHURCHILL      PTSUNNY   54  52  94 NE10      29.80R
GILLAM         CLOUDY    63  61  94 NE12      29.71R
$$
                ***SASKATCHEWAN***

CITY           SKY/WX    TMP DP  RH WIND       PRES   REMARKS
ESTEVAN        MOSUNNY   63  57  82 NW13      30.00R
KINDERSLEY     MOSUNNY   63  55  77 CALM      30.01R
LLOYDMINSTER   MOSUNNY   61  54  77 SW9       29.96S
PRINCE ALBERT  PTSUNNY   63  55  77 W7        29.90R
REGINA         MOSUNNY   63  55  77 NW12      30.00R
YORKTON        SUNNY     64  57  77 NW15      29.89R
N. BATTLEFORD  SUNNY     61  50  67 NW6       29.98S   C1F1C2F2C3F3C4F4C5F5C6F6C7F7C8F8C9F9CaFaCbFbCcFcCdFdCe!



USA.gov is the U.S. government's official web portal to all federal, state and local government web resources and services.